VOI3281 MMMX-MMVR

Flight info

Callsign VOI3281
Flight time 0h 42m
Altitude 29000
Route NOXOS2B NOXOS UT155 AVALI UT61 DURIB DURIB1A
Aircraft A320/M-SDE3FGHIRWY/LB1

Departure

Time 2026-04-23 23:37
Airport Mexico City Benito Juárez International Airport (MMMX)

Arrival

Time 2026-04-24 00:19
Airport General Heriberto Jara International Airport (MMVR)
Time Latitude Longitude Altitude Speed Heading
2026-04-23 23:11 19.43320 -99.08472 7303 ft 0 kts 328°
2026-04-23 23:19 19.43319 -99.08472 7303 ft 0 kts 328°
2026-04-23 23:22 19.43315 -99.08469 7303 ft 4 kts 329°
2026-04-23 23:22 19.43292 -99.08456 7303 ft 4 kts 337°
2026-04-23 23:22 19.43266 -99.08446 7303 ft 4 kts 349°
2026-04-23 23:23 19.43240 -99.08444 7303 ft 4 kts 18°
2026-04-23 23:23 19.43225 -99.08453 7303 ft 0 kts 59°
2026-04-23 23:26 19.43226 -99.08451 7303 ft 1 kts 59°
2026-04-23 23:26 19.43233 -99.08438 7303 ft 3 kts 60°
2026-04-23 23:26 19.43248 -99.08411 7303 ft 5 kts 60°
2026-04-23 23:26 19.43270 -99.08371 7303 ft 7 kts 59°
2026-04-23 23:27 19.43300 -99.08319 7303 ft 9 kts 59°
2026-04-23 23:27 19.43337 -99.08254 7303 ft 11 kts 59°
2026-04-23 23:27 19.43380 -99.08176 7303 ft 12 kts 59°
2026-04-23 23:27 19.43426 -99.08094 7303 ft 14 kts 59°
2026-04-23 23:28 19.43477 -99.08003 7303 ft 15 kts 59°
2026-04-23 23:28 19.43531 -99.07906 7303 ft 16 kts 59°
2026-04-23 23:28 19.43591 -99.07801 7303 ft 17 kts 60°
2026-04-23 23:28 19.43650 -99.07693 7303 ft 16 kts 59°
2026-04-23 23:29 19.43708 -99.07592 7303 ft 17 kts 59°
2026-04-23 23:29 19.43769 -99.07483 7303 ft 18 kts 60°
2026-04-23 23:29 19.43833 -99.07369 7303 ft 17 kts 59°
2026-04-23 23:29 19.43886 -99.07275 7303 ft 15 kts 59°
2026-04-23 23:30 19.43940 -99.07179 7303 ft 15 kts 59°
2026-04-23 23:30 19.43994 -99.07081 7303 ft 15 kts 59°
2026-04-23 23:30 19.44049 -99.06985 7303 ft 16 kts 59°
2026-04-23 23:30 19.44106 -99.06883 7303 ft 16 kts 60°
2026-04-23 23:31 19.44166 -99.06774 7303 ft 18 kts 59°
2026-04-23 23:31 19.44228 -99.06665 7303 ft 17 kts 59°
2026-04-23 23:31 19.44291 -99.06552 7303 ft 19 kts 59°
2026-04-23 23:31 19.44360 -99.06433 7303 ft 19 kts 58°
2026-04-23 23:32 19.44415 -99.06328 7303 ft 16 kts 70°
2026-04-23 23:32 19.44416 -99.06272 7303 ft 0 kts 104°
2026-04-23 23:32 19.44414 -99.06266 7303 ft 2 kts 106°
2026-04-23 23:33 19.44407 -99.06243 7303 ft 5 kts 112°
2026-04-23 23:33 19.44386 -99.06199 7302 ft 9 kts 133°
2026-04-23 23:33 19.44342 -99.06231 7302 ft 7 kts 242°
2026-04-23 23:33 19.44338 -99.06237 7302 ft 0 kts 241°
2026-04-23 23:36 19.44338 -99.06238 7302 ft 0 kts 241°
2026-04-23 23:36 19.44290 -99.06327 7303 ft 44 kts 239°
2026-04-23 23:36 19.44020 -99.06809 7304 ft 107 kts 239°
2026-04-23 23:36 19.43549 -99.07645 7305 ft 155 kts 239°
2026-04-23 23:37 19.42937 -99.08736 7496 ft 181 kts 240°
2026-04-23 23:37 19.42296 -99.09889 8415 ft 182 kts 239°
2026-04-23 23:37 19.41645 -99.11043 9101 ft 182 kts 239°
2026-04-23 23:37 19.40974 -99.12229 9217 ft 197 kts 240°
2026-04-23 23:38 19.40232 -99.13543 9296 ft 216 kts 239°
2026-04-23 23:38 19.39427 -99.14976 9387 ft 236 kts 240°
2026-04-23 23:38 19.38563 -99.16468 9912 ft 239 kts 234°
2026-04-23 23:38 19.37234 -99.17530 10480 ft 248 kts 198°
2026-04-23 23:39 19.35500 -99.17536 10978 ft 260 kts 162°
2026-04-23 23:39 19.33996 -99.16459 11486 ft 268 kts 132°
2026-04-23 23:39 19.32881 -99.14871 12069 ft 270 kts 120°
2026-04-23 23:39 19.31934 -99.13146 12692 ft 271 kts 117°
2026-04-23 23:40 19.31010 -99.11391 13310 ft 274 kts 117°
2026-04-23 23:40 19.30049 -99.09638 13941 ft 276 kts 118°
2026-04-23 23:40 19.29040 -99.07898 14478 ft 279 kts 120°
2026-04-23 23:40 19.27978 -99.06153 14831 ft 283 kts 121°
2026-04-23 23:41 19.27086 -99.04324 14904 ft 278 kts 101°
2026-04-23 23:41 19.26964 -99.02313 14919 ft 279 kts 75°
2026-04-23 23:41 19.27578 -99.00308 15040 ft 297 kts 66°
2026-04-23 23:41 19.28340 -98.98191 15231 ft 314 kts 66°
2026-04-23 23:42 19.29128 -98.96008 15665 ft 320 kts 65°
2026-04-23 23:42 19.30166 -98.93923 16183 ft 320 kts 51°
2026-04-23 23:42 19.31654 -98.92187 16708 ft 320 kts 38°
2026-04-23 23:42 19.33361 -98.90653 17265 ft 322 kts 37°
2026-04-23 23:43 19.35077 -98.89108 17796 ft 325 kts 37°
2026-04-23 23:43 19.36813 -98.87540 18325 ft 329 kts 37°
2026-04-23 23:43 19.38535 -98.85980 18774 ft 332 kts 37°
2026-04-23 23:43 19.40323 -98.84357 19239 ft 335 kts 38°
2026-04-23 23:44 19.42079 -98.82759 19658 ft 339 kts 38°
2026-04-23 23:44 19.43732 -98.80910 19954 ft 346 kts 51°
2026-04-23 23:44 19.44918 -98.78713 20208 ft 352 kts 65°
2026-04-23 23:44 19.45779 -98.76267 20664 ft 355 kts 67°
2026-04-23 23:45 19.46647 -98.73803 21110 ft 358 kts 67°
2026-04-23 23:45 19.47443 -98.71287 21510 ft 363 kts 75°
2026-04-23 23:45 19.47773 -98.68608 21787 ft 374 kts 88°
2026-04-23 23:45 19.47684 -98.65800 21916 ft 387 kts 91°
2026-04-23 23:46 19.47610 -98.64060 22000 ft 393 kts 91°
2026-04-23 23:46 19.47483 -98.61123 22134 ft 404 kts 91°
2026-04-23 23:46 19.47351 -98.58102 22263 ft 415 kts 91°
2026-04-23 23:46 19.47216 -98.55008 22408 ft 425 kts 91°
2026-04-23 23:47 19.47077 -98.51839 22555 ft 435 kts 91°
2026-04-23 23:47 19.46939 -98.48596 22703 ft 445 kts 91°
2026-04-23 23:47 19.46801 -98.45298 22938 ft 451 kts 91°
2026-04-23 23:47 19.46669 -98.41969 23269 ft 454 kts 90°
2026-04-23 23:48 19.46856 -98.38633 23605 ft 454 kts 79°
2026-04-23 23:48 19.47571 -98.35383 23895 ft 454 kts 70°
2026-04-23 23:48 19.48690 -98.32253 24165 ft 455 kts 66°
2026-04-23 23:48 19.49848 -98.29120 24449 ft 457 kts 66°
2026-04-23 23:49 19.52152 -98.22855 25034 ft 461 kts 66°
2026-04-23 23:49 19.53319 -98.19670 25328 ft 462 kts 66°
2026-04-23 23:49 19.54484 -98.16486 25627 ft 464 kts 66°
2026-04-23 23:50 19.55656 -98.13285 25939 ft 466 kts 66°
2026-04-23 23:50 19.56833 -98.10075 26251 ft 468 kts 66°
2026-04-23 23:50 19.58014 -98.06852 26544 ft 470 kts 66°
2026-04-23 23:50 19.59201 -98.03609 26843 ft 472 kts 66°
2026-04-23 23:51 19.60435 -98.00379 27201 ft 471 kts 62°
2026-04-23 23:51 19.61892 -97.97279 27627 ft 469 kts 61°
2026-04-23 23:51 19.63351 -97.94194 28063 ft 468 kts 60°
2026-04-23 23:51 19.64806 -97.91115 28510 ft 467 kts 60°
2026-04-23 23:52 19.66257 -97.88040 28887 ft 467 kts 60°
2026-04-23 23:52 19.67708 -97.84956 28973 ft 469 kts 60°
2026-04-23 23:52 19.70650 -97.78705 28975 ft 475 kts 60°
2026-04-23 23:53 19.73590 -97.72457 28961 ft 476 kts 60°
2026-04-23 23:53 19.76544 -97.66166 28951 ft 476 kts 60°
2026-04-23 23:54 19.79499 -97.59874 28939 ft 476 kts 60°
2026-04-23 23:54 19.81975 -97.54597 28928 ft 476 kts 60°
2026-04-23 23:55 19.84925 -97.48292 28909 ft 477 kts 60°
2026-04-23 23:55 19.87871 -97.41978 28894 ft 477 kts 60°
2026-04-23 23:56 19.90818 -97.35667 28883 ft 476 kts 60°
2026-04-23 23:56 19.93756 -97.29360 28882 ft 476 kts 60°
2026-04-23 23:57 19.96674 -97.23093 28860 ft 476 kts 60°
2026-04-23 23:57 19.99612 -97.16791 28848 ft 476 kts 60°
2026-04-23 23:58 20.02542 -97.10477 28836 ft 476 kts 60°
2026-04-23 23:58 20.05464 -97.04163 28827 ft 475 kts 60°
2026-04-23 23:59 20.08385 -96.97864 28821 ft 475 kts 60°
2026-04-23 23:59 20.11309 -96.91565 28812 ft 475 kts 60°
2026-04-24 00:00 20.14220 -96.85250 28728 ft 476 kts 63°
2026-04-24 00:00 20.15183 -96.81871 28461 ft 482 kts 79°
2026-04-24 00:00 20.15192 -96.78292 28203 ft 489 kts 97°
2026-04-24 00:01 20.14261 -96.74803 27518 ft 493 kts 113°
2026-04-24 00:01 20.12374 -96.71722 26296 ft 504 kts 134°
2026-04-24 00:01 20.09605 -96.69463 25481 ft 501 kts 152°
2026-04-24 00:01 20.06501 -96.67813 24645 ft 499 kts 155°
2026-04-24 00:02 20.03395 -96.66175 23812 ft 498 kts 155°
2026-04-24 00:02 20.00338 -96.64539 23543 ft 483 kts 154°
2026-04-24 00:02 19.97397 -96.62951 23433 ft 466 kts 154°
2026-04-24 00:02 19.94549 -96.61413 23301 ft 450 kts 154°
2026-04-24 00:03 19.91829 -96.59949 23180 ft 436 kts 155°
2026-04-24 00:03 19.89132 -96.58577 23044 ft 422 kts 161°
2026-04-24 00:03 19.86400 -96.57677 22868 ft 401 kts 167°
2026-04-24 00:03 19.83765 -96.56889 22376 ft 388 kts 167°
2026-04-24 00:04 19.81192 -96.56115 21749 ft 381 kts 167°
2026-04-24 00:04 19.78659 -96.55350 21115 ft 375 kts 167°
2026-04-24 00:04 19.76163 -96.54596 20464 ft 370 kts 167°
2026-04-24 00:04 19.73698 -96.53853 19840 ft 365 kts 167°
2026-04-24 00:05 19.71273 -96.53119 19229 ft 360 kts 167°
2026-04-24 00:05 19.68880 -96.52392 18755 ft 355 kts 167°
2026-04-24 00:05 19.66501 -96.51672 18409 ft 354 kts 167°
2026-04-24 00:05 19.64147 -96.50961 18106 ft 350 kts 167°
2026-04-24 00:06 19.61810 -96.50259 17679 ft 349 kts 167°
2026-04-24 00:06 19.59493 -96.49563 17165 ft 344 kts 166°
2026-04-24 00:06 19.57202 -96.48874 16509 ft 341 kts 166°
2026-04-24 00:06 19.54931 -96.48193 15921 ft 336 kts 165°
2026-04-24 00:07 19.52701 -96.47525 15378 ft 331 kts 165°
2026-04-24 00:07 19.50497 -96.46863 14909 ft 328 kts 165°
2026-04-24 00:07 19.48291 -96.46201 14457 ft 332 kts 165°
2026-04-24 00:07 19.46070 -96.45534 14074 ft 332 kts 164°
2026-04-24 00:08 19.43861 -96.44866 13821 ft 328 kts 164°
2026-04-24 00:08 19.41672 -96.44203 13490 ft 326 kts 163°
2026-04-24 00:08 19.39500 -96.43547 13145 ft 324 kts 164°
2026-04-24 00:08 19.38726 -96.43322 13024 ft 323 kts 165°
2026-04-24 00:09 19.36560 -96.42725 12637 ft 319 kts 164°
2026-04-24 00:09 19.34429 -96.42092 12011 ft 316 kts 163°
2026-04-24 00:09 19.32331 -96.41444 11418 ft 313 kts 163°
2026-04-24 00:09 19.30250 -96.40799 10839 ft 310 kts 163°
2026-04-24 00:10 19.28196 -96.40168 10291 ft 306 kts 164°
2026-04-24 00:10 19.26166 -96.39549 9793 ft 301 kts 164°
2026-04-24 00:10 19.24165 -96.38946 9328 ft 297 kts 165°
2026-04-24 00:10 19.22182 -96.38351 8906 ft 295 kts 165°
2026-04-24 00:11 19.20215 -96.37763 8497 ft 293 kts 165°
2026-04-24 00:11 19.18242 -96.37174 8084 ft 296 kts 166°
2026-04-24 00:11 19.16269 -96.36582 7796 ft 293 kts 166°
2026-04-24 00:11 19.14289 -96.35990 7430 ft 294 kts 166°
2026-04-24 00:12 19.12342 -96.35406 7003 ft 289 kts 166°
2026-04-24 00:12 19.10426 -96.34831 6470 ft 286 kts 166°
2026-04-24 00:12 19.08516 -96.34258 6021 ft 281 kts 167°
2026-04-24 00:12 19.06653 -96.33700 5617 ft 277 kts 166°
2026-04-24 00:13 19.04814 -96.33149 5307 ft 268 kts 166°
2026-04-24 00:13 19.03111 -96.32639 5232 ft 248 kts 166°
2026-04-24 00:13 19.01512 -96.32158 5132 ft 231 kts 166°
2026-04-24 00:13 18.99982 -96.31689 5035 ft 227 kts 161°
2026-04-24 00:14 18.98635 -96.30823 4935 ft 229 kts 136°
2026-04-24 00:14 18.97748 -96.29415 4667 ft 236 kts 111°
2026-04-24 00:14 18.97381 -96.27709 4295 ft 240 kts 102°
2026-04-24 00:14 18.97067 -96.25979 3937 ft 237 kts 102°
2026-04-24 00:15 18.96785 -96.24293 3607 ft 230 kts 96°
2026-04-24 00:15 18.97169 -96.22704 3278 ft 227 kts 54°
2026-04-24 00:15 18.98420 -96.21757 2974 ft 222 kts 19°
2026-04-24 00:15 18.99899 -96.21369 2673 ft 215 kts 10°
2026-04-24 00:16 19.01339 -96.21150 2416 ft 202 kts
2026-04-24 00:16 19.02693 -96.20961 2120 ft 191 kts
2026-04-24 00:16 19.03975 -96.20764 1856 ft 181 kts 10°
2026-04-24 00:16 19.05191 -96.20560 1636 ft 168 kts 13°
2026-04-24 00:17 19.06280 -96.20367 1403 ft 153 kts 13°
2026-04-24 00:17 19.07308 -96.20175 1214 ft 147 kts 13°
2026-04-24 00:17 19.08313 -96.19982 1011 ft 147 kts 15°
2026-04-24 00:17 19.09312 -96.19798 781 ft 151 kts 11°
2026-04-24 00:18 19.10330 -96.19639 666 ft 148 kts 13°
2026-04-24 00:18 19.11333 -96.19419 510 ft 147 kts 15°
2026-04-24 00:18 19.12329 -96.19199 293 ft 145 kts 14°
2026-04-24 00:18 19.13309 -96.19001 131 ft 138 kts 15°
2026-04-24 00:19 19.14150 -96.18819 115 ft 91 kts 11°
2026-04-24 00:19 19.14469 -96.18755 115 ft 30 kts 10°
2026-04-24 00:19 19.14565 -96.18695 114 ft 13 kts 86°
2026-04-24 00:19 19.14552 -96.18598 115 ft 14 kts 101°
2026-04-24 00:20 19.14489 -96.18548 114 ft 13 kts 181°
2026-04-24 00:20 19.14409 -96.18568 113 ft 12 kts 191°
2026-04-24 00:20 19.14347 -96.18541 116 ft 10 kts 108°
2026-04-24 00:20 19.14340 -96.18510 118 ft 4 kts 113°
2026-04-24 00:21 19.14322 -96.18484 116 ft 5 kts 118°
2026-04-24 00:21 19.14315 -96.18447 119 ft 6 kts 100°
2026-04-24 00:21 19.14311 -96.18424 120 ft 0 kts 101°